Retour au catalogue

FLOCK 4Q 36

ActifSciencePO
NORAD 58274·PAYLOAD·🇺🇸 United States

Lancé Nov 11, 2023 depuis Vandenberg Space Force Base

Loading…

Prochains Passages (prochaines 24 heures)

TLE

FraisSource: Space-Track

Époque: Sep 14, 2026, 05:09 UTC

1 58274U 23174U   26257.21483124  .00322684  00000-0  14195-2 0  9997
2 58274  97.3762 354.2550 0005832 223.5742 136.5068 15.83710929159783

Suivez FLOCK 4Q 36 en temps réel avec AllMySat

Download on the App Store